AFR86LP LFPG-LFMN

Flight info

Callsign AFR86LP
Flight time 1h 12m
Altitude 31000
Route LATRA DCT LAMUT DCT UTUVA DCT LERGA DCT LIQID DCT LATAM DCT TUNUR DCT NISAR
Aircraft A320/M-SDE2E3FGIJ1RWY/HB1

Departure

Time 2026-05-07 07:38
Airport Charles de Gaulle International Airport (LFPG)

Arrival

Time 2026-05-07 08:50
Airport Nice-Côte d'Azur Airport (LFMN)
Time Latitude Longitude Altitude Speed Heading
2026-05-07 07:16 49.00157 2.58115 361 ft 0 kts 356°
2026-05-07 07:27 49.00151 2.58116 354 ft 4 kts 355°
2026-05-07 07:27 49.00124 2.58119 362 ft 4 kts 358°
2026-05-07 07:27 49.00098 2.58115 364 ft 4 kts 26°
2026-05-07 07:28 49.00081 2.58091 359 ft 3 kts 81°
2026-05-07 07:28 49.00081 2.58085 359 ft 0 kts 85°
2026-05-07 07:31 49.00081 2.58092 359 ft 3 kts 85°
2026-05-07 07:32 49.00084 2.58153 361 ft 9 kts 85°
2026-05-07 07:32 49.00089 2.58265 362 ft 10 kts 91°
2026-05-07 07:32 49.00046 2.58322 361 ft 9 kts 186°
2026-05-07 07:32 48.99992 2.58298 358 ft 8 kts 197°
2026-05-07 07:33 48.99944 2.58306 361 ft 7 kts 148°
2026-05-07 07:33 48.99925 2.58363 358 ft 6 kts 98°
2026-05-07 07:33 48.99926 2.58419 356 ft 5 kts 85°
2026-05-07 07:33 48.99930 2.58496 354 ft 13 kts 86°
2026-05-07 07:34 48.99941 2.58673 354 ft 18 kts 85°
2026-05-07 07:34 48.99952 2.58875 359 ft 19 kts 86°
2026-05-07 07:34 48.99962 2.59093 354 ft 22 kts 85°
2026-05-07 07:34 48.99976 2.59333 357 ft 24 kts 85°
2026-05-07 07:35 48.99986 2.59555 354 ft 21 kts 85°
2026-05-07 07:35 48.99955 2.59655 357 ft 10 kts 166°
2026-05-07 07:35 48.99910 2.59660 354 ft 0 kts 175°
2026-05-07 07:36 48.99903 2.59661 354 ft 4 kts 175°
2026-05-07 07:36 48.99860 2.59666 354 ft 6 kts 175°
2026-05-07 07:36 48.99813 2.59672 353 ft 8 kts 178°
2026-05-07 07:37 48.99804 2.59647 361 ft 0 kts 263°
2026-05-07 07:37 48.99798 2.59556 356 ft 40 kts 265°
2026-05-07 07:38 48.99754 2.58712 352 ft 115 kts 265°
2026-05-07 07:38 48.99677 2.57196 419 ft 164 kts 267°
2026-05-07 07:38 48.99588 2.55408 1039 ft 172 kts 267°
2026-05-07 07:38 48.99486 2.53571 1889 ft 176 kts 265°
2026-05-07 07:39 48.99374 2.51720 2811 ft 175 kts 266°
2026-05-07 07:39 48.99254 2.49871 3636 ft 177 kts 266°
2026-05-07 07:39 48.99134 2.47887 4122 ft 199 kts 267°
2026-05-07 07:39 48.99015 2.45636 4528 ft 227 kts 266°
2026-05-07 07:40 48.98888 2.43108 5027 ft 252 kts 267°
2026-05-07 07:40 48.98747 2.40349 5700 ft 268 kts 266°
2026-05-07 07:40 48.98594 2.37490 6666 ft 273 kts 265°
2026-05-07 07:40 48.98434 2.34592 7627 ft 276 kts 265°
2026-05-07 07:41 48.98270 2.31663 8609 ft 279 kts 265°
2026-05-07 07:41 48.98104 2.28701 9597 ft 283 kts 264°
2026-05-07 07:41 48.97936 2.25692 10423 ft 292 kts 265°
2026-05-07 07:41 48.97818 2.23600 10649 ft 308 kts 265°
2026-05-07 07:42 48.97567 2.19125 11473 ft 323 kts 265°
2026-05-07 07:42 48.97439 2.16860 12031 ft 326 kts 265°
2026-05-07 07:42 48.97011 2.13466 12880 ft 330 kts 249°
2026-05-07 07:42 48.95810 2.10491 13737 ft 334 kts 227°
2026-05-07 07:43 48.93957 2.08404 14494 ft 340 kts 206°
2026-05-07 07:43 48.91658 2.07505 15225 ft 347 kts 184°
2026-05-07 07:43 48.89233 2.07761 15959 ft 352 kts 175°
2026-05-07 07:43 48.86789 2.08194 16691 ft 356 kts 174°
2026-05-07 07:44 48.84317 2.08645 17413 ft 360 kts 174°
2026-05-07 07:44 48.81819 2.09101 18127 ft 363 kts 175°
2026-05-07 07:44 48.79294 2.09555 18762 ft 367 kts 175°
2026-05-07 07:44 48.76743 2.10004 19380 ft 371 kts 175°
2026-05-07 07:45 48.74166 2.10449 20001 ft 374 kts 175°
2026-05-07 07:45 48.71570 2.10894 20624 ft 378 kts 175°
2026-05-07 07:45 48.68951 2.11445 21237 ft 382 kts 169°
2026-05-07 07:45 48.66396 2.12634 21850 ft 388 kts 158°
2026-05-07 07:46 48.63953 2.14416 22454 ft 392 kts 154°
2026-05-07 07:46 48.61507 2.16270 23046 ft 396 kts 154°
2026-05-07 07:46 48.59036 2.18143 23668 ft 399 kts 155°
2026-05-07 07:46 48.56545 2.20025 24171 ft 402 kts 155°
2026-05-07 07:47 48.54035 2.21911 24666 ft 405 kts 155°
2026-05-07 07:47 48.51505 2.23806 25156 ft 407 kts 155°
2026-05-07 07:47 48.48958 2.25715 25636 ft 410 kts 155°
2026-05-07 07:47 48.46394 2.27638 26107 ft 413 kts 155°
2026-05-07 07:48 48.43816 2.29572 26559 ft 416 kts 154°
2026-05-07 07:48 48.41218 2.31520 26988 ft 418 kts 155°
2026-05-07 07:48 48.38602 2.33475 27436 ft 421 kts 155°
2026-05-07 07:48 48.35967 2.35441 27867 ft 424 kts 155°
2026-05-07 07:49 48.33318 2.37409 28287 ft 427 kts 155°
2026-05-07 07:49 48.30646 2.39390 28700 ft 429 kts 155°
2026-05-07 07:49 48.27926 2.41259 29102 ft 431 kts 161°
2026-05-07 07:49 48.25092 2.42775 29497 ft 434 kts 161°
2026-05-07 07:50 48.22238 2.44289 29884 ft 436 kts 161°
2026-05-07 07:50 48.19371 2.45814 30232 ft 439 kts 161°
2026-05-07 07:50 48.16487 2.47346 30550 ft 441 kts 161°
2026-05-07 07:50 48.13586 2.48882 30853 ft 443 kts 162°
2026-05-07 07:51 48.10673 2.50421 31154 ft 445 kts 162°
2026-05-07 07:51 48.07743 2.51969 31442 ft 448 kts 162°
2026-05-07 07:51 48.04790 2.53488 31719 ft 450 kts 162°
2026-05-07 07:51 48.01817 2.54963 32075 ft 450 kts 163°
2026-05-07 07:52 47.98842 2.56408 32462 ft 449 kts 163°
2026-05-07 07:52 47.95870 2.57842 32830 ft 449 kts 163°
2026-05-07 07:52 47.92897 2.59279 33207 ft 449 kts 163°
2026-05-07 07:52 47.89929 2.60722 33591 ft 449 kts 163°
2026-05-07 07:53 47.86966 2.62173 33979 ft 448 kts 163°
2026-05-07 07:53 47.84002 2.63630 34318 ft 448 kts 163°
2026-05-07 07:53 47.81045 2.65082 34638 ft 448 kts 163°
2026-05-07 07:53 47.78084 2.66531 34953 ft 448 kts 163°
2026-05-07 07:54 47.75123 2.67977 35041 ft 447 kts 163°
2026-05-07 07:54 47.69302 2.70813 35061 ft 437 kts 163°
2026-05-07 07:55 47.63538 2.73621 35056 ft 435 kts 163°
2026-05-07 07:55 47.57782 2.76411 35060 ft 435 kts 163°
2026-05-07 07:56 47.52025 2.79202 35061 ft 435 kts 163°
2026-05-07 07:56 47.46268 2.81975 35064 ft 435 kts 163°
2026-05-07 07:57 47.40507 2.84743 35062 ft 435 kts 163°
2026-05-07 07:57 47.34752 2.87518 35044 ft 435 kts 164°
2026-05-07 07:58 47.29043 2.90261 35051 ft 434 kts 164°
2026-05-07 07:58 47.23287 2.93007 35042 ft 435 kts 164°
2026-05-07 07:59 47.17484 2.95770 35037 ft 436 kts 164°
2026-05-07 07:59 47.11749 2.98509 35031 ft 437 kts 164°
2026-05-07 08:00 47.05931 3.01046 35037 ft 436 kts 167°
2026-05-07 08:00 47.00080 3.03375 35038 ft 435 kts 167°
2026-05-07 08:01 46.94232 3.05703 35042 ft 436 kts 167°
2026-05-07 08:01 46.88386 3.08090 35030 ft 436 kts 167°
2026-05-07 08:02 46.82553 3.10498 35036 ft 435 kts 167°
2026-05-07 08:02 46.76720 3.12885 35039 ft 436 kts 167°
2026-05-07 08:03 46.70886 3.15264 35036 ft 435 kts 167°
2026-05-07 08:03 46.65051 3.17630 35031 ft 435 kts 167°
2026-05-07 08:04 46.59218 3.20002 35031 ft 435 kts 167°
2026-05-07 08:04 46.53383 3.22358 35031 ft 435 kts 167°
2026-05-07 08:05 46.47546 3.24699 35021 ft 435 kts 167°
2026-05-07 08:05 46.41709 3.27049 35020 ft 435 kts 167°
2026-05-07 08:06 46.35875 3.29403 35034 ft 435 kts 167°
2026-05-07 08:06 46.30037 3.31744 35028 ft 435 kts 168°
2026-05-07 08:07 46.24198 3.34087 35042 ft 436 kts 167°
2026-05-07 08:07 46.18359 3.36418 35048 ft 436 kts 168°
2026-05-07 08:08 46.12513 3.38737 35053 ft 436 kts 168°
2026-05-07 08:08 46.06670 3.41056 35043 ft 435 kts 168°
2026-05-07 08:09 46.00836 3.43380 35045 ft 435 kts 168°
2026-05-07 08:09 45.95000 3.45689 35043 ft 435 kts 168°
2026-05-07 08:10 45.89168 3.47981 35034 ft 434 kts 168°
2026-05-07 08:10 45.83386 3.50292 35035 ft 434 kts 167°
2026-05-07 08:11 45.77601 3.52799 35034 ft 434 kts 166°
2026-05-07 08:11 45.71825 3.55354 35014 ft 434 kts 167°
2026-05-07 08:12 45.66046 3.57861 35012 ft 434 kts 167°
2026-05-07 08:12 45.60266 3.60330 35019 ft 433 kts 167°
2026-05-07 08:13 45.54491 3.62792 35021 ft 433 kts 167°
2026-05-07 08:13 45.48715 3.65251 35014 ft 433 kts 167°
2026-05-07 08:14 45.42941 3.67703 35016 ft 433 kts 167°
2026-05-07 08:14 45.37168 3.70164 35018 ft 433 kts 167°
2026-05-07 08:15 45.31399 3.72630 35005 ft 434 kts 166°
2026-05-07 08:15 45.28606 3.74303 35012 ft 439 kts 155°
2026-05-07 08:15 45.26039 3.76676 35014 ft 444 kts 144°
2026-05-07 08:15 45.23796 3.79708 35016 ft 448 kts 133°
2026-05-07 08:16 45.21956 3.83294 35014 ft 451 kts 125°
2026-05-07 08:16 45.18594 3.90748 35010 ft 452 kts 125°
2026-05-07 08:17 45.15171 3.98238 35008 ft 453 kts 126°
2026-05-07 08:17 45.11732 4.05738 34995 ft 454 kts 126°
2026-05-07 08:18 45.08293 4.13233 35005 ft 454 kts 126°
2026-05-07 08:18 45.04848 4.20725 35012 ft 454 kts 126°
2026-05-07 08:19 45.00948 4.27662 35011 ft 450 kts 136°
2026-05-07 08:19 44.96711 4.34179 35020 ft 450 kts 136°
2026-05-07 08:20 44.92476 4.40695 35023 ft 451 kts 136°
2026-05-07 08:20 44.88236 4.47203 35001 ft 450 kts 136°
2026-05-07 08:21 44.83991 4.53686 35010 ft 450 kts 136°
2026-05-07 08:21 44.79745 4.60151 35014 ft 450 kts 136°
2026-05-07 08:22 44.75494 4.66625 35009 ft 451 kts 137°
2026-05-07 08:22 44.71231 4.73096 35016 ft 451 kts 137°
2026-05-07 08:23 44.66968 4.79565 35007 ft 451 kts 137°
2026-05-07 08:23 44.62698 4.86033 35009 ft 452 kts 136°
2026-05-07 08:24 44.58533 4.92646 35007 ft 452 kts 135°
2026-05-07 08:24 44.54419 4.99328 35009 ft 453 kts 135°
2026-05-07 08:24 44.52341 5.02665 34794 ft 454 kts 135°
2026-05-07 08:25 44.50259 5.05986 34202 ft 453 kts 135°
2026-05-07 08:25 44.48181 5.09290 33724 ft 450 kts 136°
2026-05-07 08:25 44.46137 5.12530 33441 ft 450 kts 136°
2026-05-07 08:25 44.44043 5.15843 33099 ft 447 kts 136°
2026-05-07 08:26 44.39973 5.22280 32432 ft 442 kts 135°
2026-05-07 08:26 44.37906 5.25518 32100 ft 438 kts 138°
2026-05-07 08:26 44.35666 5.28342 31676 ft 431 kts 146°
2026-05-07 08:27 44.33312 5.30925 31173 ft 428 kts 146°
2026-05-07 08:27 44.30975 5.33476 30699 ft 425 kts 147°
2026-05-07 08:27 44.28654 5.36002 30200 ft 422 kts 147°
2026-05-07 08:27 44.26380 5.38471 29705 ft 419 kts 147°
2026-05-07 08:28 44.24059 5.40986 29235 ft 415 kts 147°
2026-05-07 08:28 44.21820 5.43415 28779 ft 411 kts 146°
2026-05-07 08:28 44.20300 5.45066 28467 ft 409 kts 146°
2026-05-07 08:28 44.17340 5.48277 27861 ft 405 kts 146°
2026-05-07 08:29 44.15126 5.50676 27404 ft 402 kts 146°
2026-05-07 08:29 44.12927 5.53055 26954 ft 399 kts 146°
2026-05-07 08:29 44.10746 5.55419 26512 ft 396 kts 146°
2026-05-07 08:29 44.09278 5.57008 26200 ft 394 kts 146°
2026-05-07 08:30 44.07120 5.59340 25766 ft 391 kts 146°
2026-05-07 08:30 44.04975 5.61652 25332 ft 389 kts 146°
2026-05-07 08:30 44.02845 5.63947 24898 ft 386 kts 145°
2026-05-07 08:30 44.00730 5.66223 24467 ft 383 kts 145°
2026-05-07 08:31 43.98629 5.68486 24042 ft 380 kts 145°
2026-05-07 08:31 43.96546 5.70726 23610 ft 378 kts 145°
2026-05-07 08:31 43.94474 5.72952 23138 ft 375 kts 144°
2026-05-07 08:31 43.92417 5.75160 22724 ft 372 kts 145°
2026-05-07 08:32 43.90401 5.77320 22312 ft 370 kts 144°
2026-05-07 08:32 43.88374 5.79493 21899 ft 367 kts 144°
2026-05-07 08:32 43.86362 5.81646 21482 ft 364 kts 145°
2026-05-07 08:32 43.84365 5.83781 21078 ft 361 kts 145°
2026-05-07 08:33 43.82381 5.85900 20671 ft 359 kts 144°
2026-05-07 08:33 43.80410 5.88002 20269 ft 356 kts 144°
2026-05-07 08:33 43.78452 5.90087 19869 ft 354 kts 144°
2026-05-07 08:33 43.76510 5.92157 19473 ft 352 kts 144°
2026-05-07 08:34 43.74577 5.94216 19074 ft 349 kts 144°
2026-05-07 08:34 43.72656 5.96258 18687 ft 347 kts 144°
2026-05-07 08:34 43.70744 5.98289 18289 ft 346 kts 144°
2026-05-07 08:34 43.68844 6.00306 17860 ft 343 kts 144°
2026-05-07 08:35 43.66960 6.02302 17463 ft 340 kts 144°
2026-05-07 08:35 43.65094 6.04279 17097 ft 337 kts 144°
2026-05-07 08:35 43.63238 6.06240 16718 ft 335 kts 144°
2026-05-07 08:35 43.61409 6.08216 16344 ft 333 kts 140°
2026-05-07 08:36 43.59849 6.10575 15963 ft 333 kts 127°
2026-05-07 08:36 43.58706 6.13339 15609 ft 333 kts 114°
2026-05-07 08:36 43.57884 6.16310 15254 ft 331 kts 111°
2026-05-07 08:36 43.57073 6.19271 14909 ft 329 kts 111°
2026-05-07 08:37 43.56263 6.22208 14554 ft 327 kts 111°
2026-05-07 08:37 43.55457 6.25134 14201 ft 325 kts 111°
2026-05-07 08:37 43.54654 6.28037 13857 ft 324 kts 111°
2026-05-07 08:37 43.53858 6.30931 13486 ft 322 kts 111°
2026-05-07 08:38 43.53067 6.33806 13135 ft 320 kts 111°
2026-05-07 08:38 43.52277 6.36663 12799 ft 318 kts 112°
2026-05-07 08:38 43.51486 6.39500 12456 ft 316 kts 112°
2026-05-07 08:38 43.50655 6.42280 12124 ft 312 kts 118°
2026-05-07 08:39 43.49471 6.44748 11758 ft 308 kts 132°
2026-05-07 08:39 43.48006 6.46887 11354 ft 306 kts 135°
2026-05-07 08:39 43.46533 6.48999 10970 ft 305 kts 135°
2026-05-07 08:39 43.45065 6.51107 10581 ft 305 kts 135°
2026-05-07 08:40 43.43603 6.53208 10268 ft 302 kts 135°
2026-05-07 08:40 43.42167 6.55278 9848 ft 296 kts 135°
2026-05-07 08:40 43.40753 6.57313 9407 ft 293 kts 135°
2026-05-07 08:40 43.39493 6.59512 9028 ft 294 kts 121°
2026-05-07 08:41 43.38710 6.62061 8662 ft 296 kts 105°
2026-05-07 08:41 43.38449 6.64899 8275 ft 295 kts 90°
2026-05-07 08:41 43.38457 6.67708 7897 ft 292 kts 90°
2026-05-07 08:41 43.38459 6.70492 7526 ft 290 kts 90°
2026-05-07 08:42 43.38455 6.73268 7154 ft 290 kts 90°
2026-05-07 08:42 43.38450 6.76027 6784 ft 288 kts 90°
2026-05-07 08:42 43.38446 6.78770 6415 ft 286 kts 90°
2026-05-07 08:42 43.38537 6.81493 6030 ft 285 kts 79°
2026-05-07 08:43 43.39135 6.84066 5687 ft 280 kts 62°
2026-05-07 08:43 43.40191 6.86203 5610 ft 262 kts 46°
2026-05-07 08:43 43.41411 6.87965 5509 ft 247 kts 41°
2026-05-07 08:43 43.42610 6.89575 5419 ft 235 kts 41°
2026-05-07 08:44 43.43752 6.91117 5314 ft 227 kts 42°
2026-05-07 08:44 43.44873 6.92638 5212 ft 226 kts 42°
2026-05-07 08:44 43.45975 6.94138 5040 ft 226 kts 42°
2026-05-07 08:44 43.47087 6.95652 4813 ft 222 kts 42°
2026-05-07 08:45 43.48200 6.97167 4663 ft 222 kts 42°
2026-05-07 08:45 43.49293 6.98657 4397 ft 221 kts 43°
2026-05-07 08:45 43.50380 7.00140 4112 ft 220 kts 43°
2026-05-07 08:45 43.51466 7.01622 3817 ft 219 kts 43°
2026-05-07 08:46 43.52535 7.03081 3526 ft 219 kts 43°
2026-05-07 08:46 43.53588 7.04520 3240 ft 208 kts 44°
2026-05-07 08:46 43.54591 7.05890 2960 ft 199 kts 44°
2026-05-07 08:46 43.55559 7.07214 2707 ft 195 kts 43°
2026-05-07 08:47 43.56512 7.08517 2451 ft 193 kts 44°
2026-05-07 08:47 43.57459 7.09813 2228 ft 189 kts 43°
2026-05-07 08:47 43.58372 7.11062 1954 ft 181 kts 44°
2026-05-07 08:47 43.59243 7.12257 1701 ft 172 kts 44°
2026-05-07 08:48 43.60072 7.13392 1467 ft 162 kts 44°
2026-05-07 08:48 43.60843 7.14450 1251 ft 150 kts 45°
2026-05-07 08:48 43.61545 7.15410 1060 ft 136 kts 47°
2026-05-07 08:48 43.62209 7.16321 885 ft 133 kts 49°
2026-05-07 08:49 43.62857 7.17211 700 ft 131 kts 49°
2026-05-07 08:49 43.63496 7.18092 529 ft 130 kts 49°
2026-05-07 08:49 43.64142 7.18974 372 ft 129 kts 48°
2026-05-07 08:49 43.64781 7.19843 178 ft 129 kts 47°
2026-05-07 08:50 43.65407 7.20711 29 ft 127 kts 48°
2026-05-07 08:50 43.65923 7.21427 21 ft 80 kts 45°
2026-05-07 08:50 43.66151 7.21740 21 ft 23 kts 45°
2026-05-07 08:50 43.66215 7.21748 21 ft 5 kts 319°
2026-05-07 08:51 43.66241 7.21717 21 ft 5 kts 319°
2026-05-07 08:51 43.66264 7.21686 21 ft 4 kts 313°
2026-05-07 08:51 43.66275 7.21670 21 ft 0 kts 313°
2026-05-07 08:52 43.66293 7.21642 21 ft 6 kts 307°
2026-05-07 08:52 43.66262 7.21568 21 ft 17 kts 225°
2026-05-07 08:52 43.66203 7.21488 21 ft 9 kts 225°
2026-05-07 08:53 43.66162 7.21431 21 ft 8 kts 225°
2026-05-07 08:53 43.66123 7.21377 21 ft 8 kts 225°
2026-05-07 08:53 43.66086 7.21326 21 ft 7 kts 225°
2026-05-07 08:53 43.66050 7.21278 23 ft 7 kts 224°
2026-05-07 08:54 43.66016 7.21231 21 ft 7 kts 225°
2026-05-07 08:54 43.65983 7.21186 21 ft 6 kts 225°
2026-05-07 08:54 43.65951 7.21141 21 ft 7 kts 225°
2026-05-07 08:54 43.65917 7.21095 21 ft 7 kts 225°
2026-05-07 08:55 43.65885 7.21051 21 ft 6 kts 224°
2026-05-07 08:55 43.65853 7.21007 21 ft 7 kts 225°
2026-05-07 08:55 43.65814 7.20952 21 ft 9 kts 225°
2026-05-07 08:55 43.65762 7.20882 21 ft 12 kts 225°
2026-05-07 08:56 43.65705 7.20804 21 ft 12 kts 225°
2026-05-07 08:56 43.65648 7.20725 21 ft 12 kts 229°
2026-05-07 08:56 43.65656 7.20631 21 ft 9 kts 314°
2026-05-07 08:56 43.65667 7.20617 22 ft 0 kts 316°
2026-05-07 08:57 43.65669 7.20614 21 ft 1 kts 316°
2026-05-07 08:57 43.65674 7.20607 21 ft 2 kts 316°
2026-05-07 08:57 43.65693 7.20590 21 ft 5 kts 338°
2026-05-07 08:57 43.65740 7.20605 21 ft 7 kts 42°
2026-05-07 08:58 43.65775 7.20651 21 ft 7 kts 45°
2026-05-07 08:58 43.65800 7.20644 21 ft 3 kts 327°
2026-05-07 08:58 43.65822 7.20631 21 ft 4 kts 340°
2026-05-07 08:58 43.65843 7.20621 24 ft 3 kts 338°
2026-05-07 08:59 43.65860 7.20612 21 ft 0 kts 339°